Temp
75 74 74 73 72 72 72 72 71 71 72 72 72 72 72 71 71 69 68 68 68 68 69 69 70 70 70 70 69 69 69 68 67 67 66 65 65 65 65 66 65 63 61 60 58 56 55 54 53 53 52 52 52 52 53 53 52 52 51 51 51 50 50 50 50 50 50 50 49
74 74 74 72 71 71 71 71 71 71 71 72 72 72 72 72 71 69 68 68 68 68 69 70 71 71 70 68 68 69 69 69 69 68 68 67 67 67 67 67 66 64 62 59 57 56 54 53 53 52 52 52 52 53 54 54 54 53 52 51 51 50 50 50 51 51 50 50 50
74 74 74 73 72 72 71 71 71 71 71 71 72 72 72 72 71 69 68 68 69 69 69 69 69 68 67 66 67 68 69 70 70 70 69 68 68 67 67 66 65 63 61 58 56 55 53 53 52 52 52 53 54 54 54 54 53 52 51 52 52 52 51 51 51 51 50 49 49
74 74 73 73 72 72 72 71 71 71 71 71 72 72 72 72 70 69 69 69 70 70 70 69 68 67 67 67 68 68 69 69 69 69 69 68 67 66 64 62 60 58 56 55 54 54 54 53 53 53 54 54 54 55 55 55 54 53 53 53 53 52 51 51 51 51 50 49 49
73 73 73 73 73 73 73 72 72 72 72 72 71 71 71 71 70 69 68 68 69 70 70 69 68 68 69 69 69 69 68 67 65 64 62 60 59 58 57 56 55 55 55 55 54 55 55 55 55 55 56 56 56 57 57 56 55 55 54 54 53 52 52 52 52 51 51 50 50
72 72 73 73 73 73 73 73 73 73 72 72 71 71 70 70 69 68 67 67 68 69 68 67 67 68 69 70 69 68 66 64 61 59 57 56 56 56 56 55 56 56 56 56 56 57 58 59 58 58 58 58 59 58 58 57 56 56 55 55 54 54 53 53 52 52 50 49 48
72 72 72 73 73 73 73 73 73 73 73 72 72 71 70 69 68 68 67 68 68 68 67 68 68 69 69 69 68 66 64 62 59 58 57 57 56 56 56 56 56 57 57 58 59 59 60 60 59 59 59 58 58 58 58 57 56 56 55 55 55 54 54 53 52 50 48 48 47
71 72 72 72 72 72 72 72 72 72 72 72 71 71 71 70 68 68 67 68 68 69 69 69 69 69 69 69 68 67 65 63 62 61 60 59 58 58 57 56 56 57 59 60 60 60 60 60 59 59 59 59 58 58 58 58 57 56 55 55 54 54 53 50 50 49 49 49 49
71 71 71 71 71 71 72 72 72 72 71 71 71 71 71 70 68 67 67 68 68 69 70 69 69 68 68 67 66 64 63 62 62 61 60 59 58 57 57 58 58 60 61 61 61 60 59 59 58 58 58 58 58 58 58 57 56 55 55 54 52 52 52 52 52 52 52 52 51
69 70 70 70 70 70 71 71 71 71 71 71 71 71 70 68 67 67 67 67 68 68 69 69 68 66 65 63 61 60 59 60 60 59 58 58 58 59 59 60 61 61 61 60 60 60 59 59 59 59 59 59 58 58 57 56 54 54 54 53 53 54 55 56 56 55 54 53 52
68 69 69 69 69 69 69 70 70 70 70 71 71 70 69 67 67 67 67 68 68 67 67 66 64 62 61 60 59 59 59 59 59 59 59 60 61 61 62 61 61 61 60 60 60 60 60 59 59 59 58 58 58 57 56 55 54 54 55 56 56 56 56 56 56 55 54 54 52
68 68 68 68 68 68 68 69 69 69 70 70 70 69 67 66 66 66 66 66 65 64 63 62 62 61 60 60 60 60 60 60 61 62 62 63 62 62 62 61 61 61 61 61 61 60 60 59 59 58 58 58 58 58 57 56 55 55 56 56 56 55 55 55 55 55 54 54 53
66 66 66 67 67 67 67 68 68 69 69 68 68 67 66 65 65 65 65 64 61 60 60 61 62 62 62 61 61 61 61 62 63 63 63 63 63 62 62 62 62 62 61 61 61 60 60 59 58 58 58 58 58 58 57 56 56 56 55 55 55 55 55 54 54 53 53 53 52
64 64 64 65 65 66 67 67 67 67 67 67 67 66 65 64 64 64 64 63 61 60 60 61 62 62 62 62 63 63 64 64 64 64 63 63 63 63 62 62 62 61 61 61 60 60 59 59 58 58 57 57 57 57 56 56 56 55 55 55 54 54 54 53 52 52 51 51 50
61 62 62 64 65 65 66 65 65 65 65 65 65 64 63 62 62 62 62 62 62 62 62 62 62 62 62 63 64 64 64 64 64 63 63 62 62 62 61 61 60 60 60 60 59 59 58 57 57 56 56 56 55 55 55 55 54 54 53 53 52 52 51 51 51 50 50 50 50
60 60 61 63 63 64 63 63 63 63 63 62 62 61 60 59 61 61 62 62 62 63 63 62 62 62 62 62 63 63 63 63 63 62 62 61 61 60 60 60 59 59 58 58 58 57 57 56 55 55 54 54 54 54 53 53 52 52 51 51 50 49 49 49 50 50 50 50 49
59 59 60 61 62 61 61 61 61 60 60 59 59 59 59 59 61 61 61 61 62 62 62 62 62 62 61 60 61 61 61 61 61 61 60 60 60 59 59 58 58 57 56 56 56 56 55 55 55 54 53 53 52 52 51 51 50 50 49 49 48 48 47 48 49 50 50 50 49
58 58 59 59 59 59 58 59 59 58 58 58 58 59 59 60 61 61 62 62 62 62 61 60 61 60 60 59 59 59 59 59 59 59 58 58 58 58 58 57 57 56 55 54 54 54 54 54 54 53 53 51 51 50 49 49 49 49 49 48 47 47 47 48 48 49 49 49 49
57 57 57 57 57 57 57 57 57 57 57 58 58 59 59 59 60 60 60 60 61 60 60 59 59 59 58 58 58 58 58 58 57 57 57 57 57 56 56 56 55 54 53 52 53 53 53 53 53 52 52 50 50 49 49 48 49 49 48 48 47 46 46 46 47 47 47 47 47
57 57 57 57 57 57 57 57 57 57 57 57 57 57 58 58 58 58 58 58 59 58 58 58 57 57 57 57 57 57 57 57 57 56 56 56 56 56 55 55 54 53 52 50 51 52 52 52 51 51 50 49 48 48 48 48 48 48 48 47 46 46 46 45 46 46 46 46 46
56 56 57 57 57 56 56 56 56 57 57 57 56 56 56 56 56 56 56 57 57 57 57 56 56 56 56 56 56 56 56 57 56 56 56 56 55 55 55 55 54 52 51 48 49 50 50 50 49 47 46 46 46 47 47 47 47 47 47 47 46 45 45 45 45 45 45 45 45
55 56 56 56 56 56 56 56 56 56 56 56 55 55 55 55 55 55 55 55 56 56 56 55 55 55 55 55 55 55 56 56 56 56 56 55 55 55 55 54 53 51 49 47 47 47 47 46 44 42 41 41 44 45 46 47 47 47 46 46 45 44 43 43 44 45 45 45 45
55 55 55 55 55 55 55 55 55 55 55 55 55 55 55 55 54 54 54 54 54 54 54 55 55 55 55 55 55 55 55 55 55 56 56 56 55 55 54 54 52 50 49 47 45 44 43 42 39 37 36 37 42 45 46 46 46 46 45 45 44 43 42 42 43 44 44 44 45
54 55 55 55 55 55 55 55 55 55 55 54 54 54 54 54 54 54 54 54 54 54 54 54 54 54 55 55 56 56 55 55 55 55 56 56 56 55 54 54 52 50 49 48 46 45 44 42 39 37 37 36 42 45 46 47 46 46 45 45 44 43 42 43 44 44 44 44 45
54 54 54 55 55 55 55 55 54 54 54 54 54 54 54 54 54 54 53 53 53 53 53 53 53 54 54 55 55 55 55 55 55 55 55 56 56 56 55 55 54 52 50 49 47 47 46 45 44 42 41 41 45 47 47 47 46 46 45 45 44 43 43 44 44 44 44 44 44
53 54 54 54 54 54 54 54 53 53 53 53 53 53 53 53 53 53 53 52 52 52 52 52 52 53 53 54 54 54 55 55 55 55 55 55 55 55 55 54 53 51 49 48 47 47 46 46 46 45 44 45 47 47 47 46 46 45 45 44 44 43 43 43 44 45 45 45 44
53 53 53 53 54 53 53 53 53 53 52 52 52 52 53 53 53 53 52 52 52 52 51 52 52 52 53 53 53 53 53 54 54 54 54 54 54 54 53 53 52 49 47 47 47 47 46 46 46 45 45 46 46 46 46 46 45 45 44 44 43 43 43 43 43 44 45 45 45
52 52 52 53 53 53 53 53 52 52 52 52 52 52 52 52 52 52 51 51 51 51 51 51 51 52 52 52 52 52 52 52 52 53 53 53 53 53 52 52 50 49 48 48 47 47 46 46 45 45 45 46 46 46 46 45 45 45 45 44 44 43 43 43 44 44 44 44 44
52 52 52 52 52 52 52 52 52 52 52 52 51 51 51 51 51 51 51 51 50 50 50 50 51 51 51 51 51 51 51 51 52 52 52 52 52 52 52 51 50 49 48 48 47 47 46 46 45 45 45 45 46 46 46 46 45 45 45 44 44 43 43 43 43 43 44 44 44
52 52 52 52 52 51 51 51 51 51 51 51 51 51 51 50 50 50 50 50 49 49 50 50 50 50 50 49 50 50 50 50 51 51 51 51 51 51 51 51 50 49 48 47 47 46 46 45 45 45 45 45 45 46 46 46 45 45 44 44 43 43 43 43 43 43 43 43 43
52 51 51 51 51 51 51 51 51 51 51 51 51 51 50 50 49 49 49 48 48 49 49 49 49 49 49 49 49 49 49 49 49 49 49 49 50 50 50 50 49 48 47 47 47 46 46 45 45 45 44 44 45 45 46 45 45 44 44 43 43 42 42 43 42 42 42 42 42
51 51 51 51 50 50 50 51 51 51 51 51 50 49 49 48 48 48 48 48 48 48 49 49 48 48 48 48 48 48 48 48 48 48 48 48 48 49 49 50 49 48 47 47 46 46 45 45 45 44 44 44 45 45 45 45 45 45 44 43 42 42 42 42 42 41 41 41 42
50 50 50 50 50 50 50 50 51 51 50 50 49 48 47 47 47 47 47 48 48 48 48 48 48 48 48 48 47 47 47 46 46 47 47 47 48 48 49 49 49 48 47 47 46 46 45 45 44 44 44 44 45 45 45 45 45 45 44 43 43 42 42 41 41 40 40 41 42
50 50 50 49 49 49 50 50 50 49 49 48 47 46 46 45 45 46 46 47 47 48 48 48 47 47 47 47 47 46 46 46 46 46 46 47 47 47 47 48 48 48 47 47 46 46 45 44 44 44 44 44 45 45 45 45 45 44 44 43 43 43 42 41 40 40 39 40 41
51 50 50 49 49 49 49 49 49 48 48 47 46 45 45 45 45 45 45 46 46 46 46 46 46 46 46 46 46 45 45 45 45 45 46 46 46 46 46 46 47 47 46 47 46 45 45 44 44 44 44 44 45 45 45 44 44 43 43 43 42 42 42 41 40 39 39 39 40
51 51 50 49 49 49 49 49 48 47 46 45 45 45 45 45 45 45 45 45 45 45 45 45 45 45 45 45 45 45 45 45 45 45 45 46 46 45 45 46 46 46 46 46 46 45 44 44 44 44 44 44 45 45 45 44 44 43 43 42 42 41 41 41 41 39 38 37 38
52 51 50 50 49 49 49 48 47 47 46 45 44 44 44 44 44 45 45 45 45 45 44 44 44 44 43 43 43 44 44 44 44 45 45 45 45 45 45 45 46 46 46 45 45 44 44 44 43 44 44 45 45 44 44 43 43 42 42 41 41 41 41 41 41 40 38 36 37
52 51 51 50 49 49 48 48 47 46 45 44 44 44 44 44 44 45 45 45 45 44 44 43 43 42 42 42 42 43 43 44 44 44 44 45 45 45 45 45 45 45 45 45 45 44 44 43 43 43 44 44 44 44 43 42 41 41 40 40 41 41 41 41 41 40 39 38 38
52 51 51 50 49 48 48 47 46 45 45 44 44 44 44 44 44 44 45 45 45 44 43 42 42 42 42 42 42 42 42 43 43 44 44 44 44 44 44 45 45 45 45 44 44 44 44 44 43 43 43 44 44 44 43 41 40 39 39 40 40 40 40 40 40 40 39 39 39
52 51 50 50 49 48 47 47 46 45 44 44 44 44 44 44 44 44 44 45 45 44 43 43 42 42 42 42 42 42 42 42 42 43 43 43 43 43 44 45 44 44 44 44 44 44 44 44 43 43 43 44 44 43 42 41 39 39 39 39 39 39 39 40 40 39 39 39 39
51 50 50 49 48 48 47 46 45 45 44 44 44 44 44 44 44 44 44 44 44 44 44 43 43 42 42 42 42 41 41 41 41 42 42 43 43 43 43 44 44 44 44 44 43 43 43 43 43 43 43 43 43 42 41 40 38 38 38 38 38 38 38 38 38 38 38 38 39
MSLP
1015.04 1015.24 1015.40 1015.56 1015.80 1015.96 1016.08 1016.20 1016.28 1016.40 1016.44 1016.56 1016.68 1016.76 1016.84 1017.00 1017.04 1017.20 1017.40 1017.56 1017.60 1017.68 1017.72 1017.76 1017.80 1017.84 1017.92 1018.08 1018.20 1018.28 1018.36 1018.44 1018.60 1018.72 1018.84 1018.96 1019.04 1019.12 1019.20 1019.24 1019.32 1019.48 1019.68 1019.84 1020.04 1020.20 1020.32 1020.40 1020.56 1020.60 1020.68 1020.80 1020.84 1020.84 1020.92 1020.96 1021.00 1021.00 1021.00 1021.00 1021.00 1021.04 1021.12 1021.12 1021.08 1021.00 1021.00 1021.00 1021.00
1015.00 1015.16 1015.36 1015.56 1015.72 1015.92 1016.04 1016.16 1016.28 1016.40 1016.48 1016.56 1016.60 1016.68 1016.84 1016.92 1017.04 1017.20 1017.32 1017.44 1017.56 1017.60 1017.68 1017.72 1017.68 1017.76 1017.92 1018.08 1018.16 1018.28 1018.28 1018.28 1018.40 1018.52 1018.68 1018.76 1018.84 1018.96 1019.04 1019.12 1019.20 1019.40 1019.60 1019.84 1020.00 1020.20 1020.32 1020.40 1020.56 1020.60 1020.68 1020.72 1020.72 1020.72 1020.72 1020.76 1020.84 1020.84 1020.84 1020.80 1020.80 1020.84 1020.84 1020.92 1020.96 1020.96 1020.96 1020.92 1020.92
1015.00 1015.12 1015.28 1015.48 1015.68 1015.84 1016.00 1016.12 1016.28 1016.36 1016.44 1016.56 1016.60 1016.68 1016.76 1016.84 1017.00 1017.12 1017.28 1017.40 1017.44 1017.56 1017.60 1017.68 1017.72 1017.84 1018.00 1018.16 1018.28 1018.28 1018.28 1018.28 1018.28 1018.36 1018.48 1018.64 1018.72 1018.84 1019.00 1019.08 1019.20 1019.40 1019.68 1019.88 1020.08 1020.20 1020.32 1020.40 1020.52 1020.56 1020.56 1020.56 1020.56 1020.56 1020.56 1020.60 1020.68 1020.72 1020.68 1020.68 1020.68 1020.68 1020.76 1020.84 1020.84 1020.84 1020.84 1020.84 1020.84
1014.96 1015.08 1015.24 1015.40 1015.56 1015.72 1015.88 1016.00 1016.12 1016.28 1016.40 1016.52 1016.60 1016.68 1016.72 1016.84 1017.00 1017.12 1017.24 1017.32 1017.40 1017.44 1017.52 1017.64 1017.76 1017.88 1018.00 1018.12 1018.16 1018.24 1018.28 1018.28 1018.32 1018.36 1018.44 1018.56 1018.72 1018.92 1019.12 1019.32 1019.52 1019.68 1019.84 1020.00 1020.12 1020.24 1020.32 1020.40 1020.44 1020.44 1020.40 1020.40 1020.40 1020.40 1020.40 1020.44 1020.52 1020.56 1020.56 1020.56 1020.60 1020.68 1020.72 1020.76 1020.76 1020.76 1020.76 1020.76 1020.72
1014.96 1015.08 1015.24 1015.36 1015.48 1015.64 1015.80 1015.84 1016.00 1016.16 1016.28 1016.40 1016.56 1016.64 1016.72 1016.84 1017.00 1017.12 1017.28 1017.32 1017.36 1017.40 1017.48 1017.60 1017.80 1017.84 1017.88 1018.00 1018.04 1018.12 1018.28 1018.40 1018.56 1018.68 1018.84 1019.00 1019.12 1019.32 1019.48 1019.60 1019.72 1019.80 1019.92 1020.00 1020.12 1020.16 1020.20 1020.28 1020.28 1020.28 1020.28 1020.28 1020.28 1020.20 1020.20 1020.28 1020.36 1020.40 1020.40 1020.48 1020.52 1020.56 1020.60 1020.64 1020.64 1020.68 1020.64 1020.60 1020.60
1015.00 1015.12 1015.24 1015.32 1015.44 1015.56 1015.72 1015.84 1015.96 1016.08 1016.20 1016.28 1016.48 1016.64 1016.76 1016.84 1017.00 1017.12 1017.28 1017.32 1017.32 1017.40 1017.56 1017.72 1017.84 1017.84 1017.88 1017.92 1018.00 1018.16 1018.36 1018.56 1018.76 1018.92 1019.04 1019.16 1019.32 1019.44 1019.56 1019.64 1019.72 1019.84 1019.88 1019.96 1019.96 1019.96 1020.00 1020.00 1020.00 1020.00 1020.00 1020.00 1020.00 1020.00 1020.04 1020.12 1020.20 1020.24 1020.28 1020.28 1020.40 1020.40 1020.48 1020.48 1020.52 1020.56 1020.60 1020.60 1020.60
1015.00 1015.12 1015.24 1015.32 1015.44 1015.56 1015.72 1015.80 1015.88 1016.00 1016.12 1016.28 1016.40 1016.56 1016.68 1016.80 1016.96 1017.08 1017.20 1017.28 1017.36 1017.44 1017.56 1017.68 1017.72 1017.80 1017.84 1017.92 1018.08 1018.28 1018.48 1018.68 1018.84 1019.00 1019.12 1019.20 1019.32 1019.40 1019.52 1019.60 1019.72 1019.72 1019.80 1019.80 1019.80 1019.80 1019.80 1019.80 1019.84 1019.88 1019.92 1020.00 1020.00 1020.00 1020.00 1020.04 1020.12 1020.12 1020.12 1020.16 1020.24 1020.32 1020.40 1020.40 1020.52 1020.56 1020.64 1020.60 1020.60
1015.00 1015.12 1015.24 1015.36 1015.44 1015.56 1015.72 1015.80 1015.88 1016.00 1016.16 1016.28 1016.36 1016.44 1016.56 1016.68 1016.88 1017.04 1017.20 1017.28 1017.36 1017.40 1017.48 1017.56 1017.68 1017.76 1017.84 1017.88 1018.04 1018.24 1018.40 1018.56 1018.72 1018.92 1019.04 1019.12 1019.28 1019.36 1019.44 1019.56 1019.60 1019.60 1019.60 1019.60 1019.64 1019.64 1019.72 1019.76 1019.84 1019.84 1019.84 1019.84 1019.92 1019.92 1019.92 1019.96 1020.04 1020.08 1020.08 1020.12 1020.20 1020.28 1020.40 1020.48 1020.56 1020.56 1020.56 1020.48 1020.44
1015.08 1015.16 1015.28 1015.40 1015.52 1015.64 1015.72 1015.84 1015.96 1016.04 1016.20 1016.28 1016.36 1016.40 1016.52 1016.68 1016.92 1017.12 1017.24 1017.32 1017.36 1017.40 1017.48 1017.56 1017.72 1017.84 1017.96 1018.08 1018.24 1018.40 1018.56 1018.68 1018.76 1018.92 1019.12 1019.24 1019.32 1019.40 1019.44 1019.48 1019.44 1019.40 1019.40 1019.44 1019.52 1019.60 1019.72 1019.80 1019.84 1019.84 1019.84 1019.84 1019.84 1019.84 1019.84 1019.96 1020.04 1020.08 1020.12 1020.20 1020.28 1020.36 1020.36 1020.32 1020.28 1020.28 1020.28 1020.28 1020.28
1015.12 1015.24 1015.36 1015.48 1015.60 1015.72 1015.80 1015.92 1016.00 1016.12 1016.20 1016.28 1016.36 1016.40 1016.56 1016.84 1017.00 1017.16 1017.28 1017.36 1017.40 1017.48 1017.56 1017.64 1017.80 1018.00 1018.16 1018.36 1018.56 1018.68 1018.76 1018.84 1018.88 1019.04 1019.20 1019.28 1019.32 1019.28 1019.28 1019.24 1019.28 1019.28 1019.32 1019.40 1019.48 1019.56 1019.64 1019.72 1019.76 1019.76 1019.80 1019.84 1019.84 1019.84 1019.92 1020.04 1020.12 1020.16 1020.16 1020.20 1020.20 1020.12 1020.00 1020.00 1020.00 1020.04 1020.08 1020.12 1020.16
1015.20 1015.28 1015.40 1015.56 1015.68 1015.76 1015.88 1016.00 1016.12 1016.16 1016.24 1016.32 1016.40 1016.56 1016.72 1016.92 1017.08 1017.20 1017.32 1017.40 1017.44 1017.56 1017.72 1017.88 1018.08 1018.24 1018.40 1018.52 1018.64 1018.72 1018.84 1018.92 1019.00 1019.04 1019.12 1019.16 1019.12 1019.12 1019.12 1019.12 1019.24 1019.28 1019.32 1019.40 1019.40 1019.48 1019.56 1019.64 1019.72 1019.76 1019.80 1019.84 1019.92 1019.96 1020.00 1020.12 1020.16 1020.12 1020.08 1020.00 1019.96 1019.92 1019.92 1019.92 1020.00 1020.00 1020.00 1020.00 1020.04
1015.28 1015.40 1015.52 1015.60 1015.76 1015.88 1015.96 1016.04 1016.12 1016.20 1016.28 1016.40 1016.48 1016.68 1016.92 1017.12 1017.20 1017.32 1017.40 1017.52 1017.68 1017.84 1018.00 1018.16 1018.28 1018.32 1018.40 1018.56 1018.68 1018.76 1018.84 1018.92 1018.92 1018.92 1018.96 1019.00 1019.00 1019.04 1019.12 1019.16 1019.20 1019.24 1019.28 1019.36 1019.40 1019.44 1019.52 1019.64 1019.72 1019.72 1019.76 1019.80 1019.84 1019.88 1019.96 1020.04 1020.04 1020.00 1020.00 1019.96 1019.96 1019.96 1020.00 1020.00 1020.00 1020.00 1020.00 1020.00 1020.00
1015.40 1015.52 1015.64 1015.76 1015.88 1016.00 1016.04 1016.12 1016.20 1016.28 1016.40 1016.52 1016.64 1016.84 1017.04 1017.24 1017.36 1017.44 1017.56 1017.68 1017.88 1018.12 1018.24 1018.32 1018.32 1018.36 1018.44 1018.56 1018.68 1018.76 1018.84 1018.76 1018.68 1018.72 1018.84 1018.88 1018.96 1019.00 1019.04 1019.12 1019.16 1019.20 1019.28 1019.36 1019.40 1019.52 1019.56 1019.64 1019.72 1019.72 1019.72 1019.76 1019.80 1019.84 1019.96 1020.00 1020.00 1020.00 1020.00 1019.96 1019.96 1019.96 1020.00 1020.04 1020.08 1020.12 1020.12 1020.12 1020.12
1015.60 1015.72 1015.80 1015.88 1016.00 1016.04 1016.08 1016.20 1016.28 1016.40 1016.56 1016.68 1016.84 1017.00 1017.16 1017.36 1017.48 1017.56 1017.64 1017.80 1018.00 1018.16 1018.32 1018.40 1018.40 1018.44 1018.48 1018.56 1018.60 1018.64 1018.60 1018.56 1018.60 1018.68 1018.80 1018.84 1018.92 1019.00 1019.08 1019.12 1019.24 1019.32 1019.40 1019.44 1019.52 1019.60 1019.68 1019.72 1019.72 1019.84 1019.84 1019.88 1019.96 1020.00 1020.04 1020.08 1020.08 1020.08 1020.04 1020.04 1020.04 1020.04 1020.08 1020.12 1020.20 1020.28 1020.28 1020.28 1020.24
1015.84 1015.92 1016.00 1016.00 1016.04 1016.12 1016.16 1016.28 1016.44 1016.60 1016.72 1016.88 1017.04 1017.20 1017.40 1017.56 1017.68 1017.72 1017.76 1017.84 1018.00 1018.12 1018.28 1018.36 1018.44 1018.56 1018.60 1018.60 1018.56 1018.56 1018.60 1018.60 1018.68 1018.76 1018.84 1019.00 1019.04 1019.12 1019.20 1019.28 1019.40 1019.48 1019.56 1019.60 1019.68 1019.76 1019.84 1019.88 1019.96 1020.00 1020.04 1020.08 1020.12 1020.16 1020.16 1020.20 1020.20 1020.24 1020.24 1020.28 1020.28 1020.28 1020.32 1020.40 1020.40 1020.40 1020.36 1020.32 1020.28
1015.96 1016.04 1016.08 1016.12 1016.12 1016.28 1016.40 1016.56 1016.68 1016.84 1016.96 1017.12 1017.32 1017.48 1017.64 1017.76 1017.84 1017.84 1017.92 1018.00 1018.04 1018.12 1018.24 1018.40 1018.48 1018.56 1018.68 1018.68 1018.72 1018.76 1018.76 1018.80 1018.84 1018.92 1019.00 1019.12 1019.24 1019.32 1019.40 1019.48 1019.56 1019.68 1019.76 1019.80 1019.84 1019.96 1020.08 1020.12 1020.20 1020.24 1020.28 1020.28 1020.28 1020.32 1020.40 1020.40 1020.40 1020.44 1020.48 1020.52 1020.56 1020.56 1020.60 1020.60 1020.52 1020.48 1020.44 1020.40 1020.36
1016.04 1016.12 1016.16 1016.24 1016.32 1016.44 1016.60 1016.76 1016.92 1017.08 1017.24 1017.40 1017.56 1017.64 1017.72 1017.84 1017.88 1017.96 1018.00 1018.04 1018.12 1018.24 1018.36 1018.44 1018.56 1018.64 1018.72 1018.84 1018.96 1019.00 1019.04 1019.08 1019.12 1019.20 1019.28 1019.32 1019.40 1019.52 1019.60 1019.72 1019.80 1019.92 1020.00 1020.04 1020.08 1020.12 1020.24 1020.32 1020.36 1020.40 1020.48 1020.52 1020.56 1020.56 1020.60 1020.64 1020.68 1020.68 1020.72 1020.76 1020.80 1020.84 1020.84 1020.72 1020.64 1020.56 1020.52 1020.48 1020.44
1016.20 1016.28 1016.36 1016.40 1016.56 1016.68 1016.84 1016.96 1017.12 1017.28 1017.44 1017.56 1017.68 1017.76 1017.84 1017.92 1018.00 1018.04 1018.12 1018.12 1018.24 1018.32 1018.44 1018.60 1018.68 1018.80 1018.88 1019.00 1019.12 1019.24 1019.28 1019.36 1019.40 1019.48 1019.56 1019.60 1019.68 1019.76 1019.84 1019.96 1020.04 1020.16 1020.28 1020.28 1020.32 1020.36 1020.44 1020.48 1020.56 1020.60 1020.68 1020.72 1020.80 1020.84 1020.84 1020.88 1020.88 1020.88 1020.88 1020.96 1021.00 1021.00 1021.00 1020.88 1020.84 1020.72 1020.68 1020.60 1020.56
1016.28 1016.40 1016.52 1016.64 1016.72 1016.88 1017.00 1017.16 1017.28 1017.40 1017.56 1017.72 1017.84 1017.92 1018.00 1018.08 1018.12 1018.20 1018.28 1018.36 1018.44 1018.52 1018.64 1018.76 1018.88 1019.00 1019.12 1019.24 1019.36 1019.48 1019.56 1019.60 1019.68 1019.76 1019.84 1019.88 1019.96 1020.00 1020.12 1020.20 1020.28 1020.40 1020.52 1020.56 1020.56 1020.60 1020.68 1020.68 1020.76 1020.80 1020.84 1020.92 1021.00 1021.00 1021.04 1021.04 1021.04 1021.04 1021.08 1021.12 1021.12 1021.12 1021.12 1021.12 1021.04 1021.00 1020.92 1020.88 1020.80
1016.40 1016.52 1016.68 1016.80 1016.92 1017.00 1017.16 1017.32 1017.48 1017.60 1017.72 1017.84 1018.00 1018.08 1018.16 1018.28 1018.36 1018.40 1018.48 1018.60 1018.72 1018.80 1018.88 1018.96 1019.08 1019.20 1019.32 1019.44 1019.56 1019.68 1019.76 1019.84 1019.88 1019.96 1020.00 1020.12 1020.16 1020.28 1020.32 1020.40 1020.56 1020.68 1020.80 1020.88 1020.88 1020.88 1020.92 1021.00 1021.00 1021.08 1021.12 1021.12 1021.16 1021.16 1021.16 1021.20 1021.16 1021.20 1021.20 1021.24 1021.28 1021.32 1021.28 1021.28 1021.24 1021.20 1021.12 1021.08 1021.00
1016.56 1016.72 1016.84 1017.00 1017.12 1017.24 1017.40 1017.56 1017.68 1017.80 1017.92 1018.04 1018.16 1018.28 1018.40 1018.52 1018.60 1018.68 1018.80 1018.88 1019.00 1019.04 1019.12 1019.20 1019.28 1019.40 1019.52 1019.64 1019.72 1019.84 1019.96 1020.00 1020.08 1020.12 1020.20 1020.28 1020.40 1020.44 1020.56 1020.64 1020.76 1020.92 1021.04 1021.16 1021.20 1021.20 1021.24 1021.28 1021.36 1021.40 1021.40 1021.40 1021.40 1021.32 1021.32 1021.36 1021.36 1021.36 1021.36 1021.40 1021.40 1021.48 1021.48 1021.44 1021.40 1021.32 1021.28 1021.20 1021.12
1016.84 1016.96 1017.12 1017.24 1017.32 1017.44 1017.60 1017.76 1017.88 1018.00 1018.12 1018.28 1018.40 1018.52 1018.64 1018.72 1018.84 1019.00 1019.12 1019.16 1019.24 1019.28 1019.36 1019.48 1019.56 1019.64 1019.72 1019.84 1019.92 1020.00 1020.12 1020.20 1020.28 1020.32 1020.40 1020.48 1020.56 1020.68 1020.76 1020.88 1021.00 1021.12 1021.32 1021.48 1021.56 1021.56 1021.60 1021.68 1021.72 1021.76 1021.76 1021.72 1021.64 1021.56 1021.52 1021.52 1021.48 1021.48 1021.48 1021.52 1021.56 1021.60 1021.60 1021.56 1021.48 1021.40 1021.40 1021.32 1021.28
1017.00 1017.16 1017.28 1017.44 1017.56 1017.72 1017.80 1017.96 1018.08 1018.20 1018.32 1018.48 1018.60 1018.68 1018.84 1018.96 1019.12 1019.24 1019.36 1019.40 1019.48 1019.56 1019.60 1019.72 1019.84 1019.92 1020.00 1020.08 1020.12 1020.16 1020.24 1020.32 1020.40 1020.52 1020.60 1020.64 1020.72 1020.84 1021.00 1021.12 1021.24 1021.40 1021.56 1021.72 1021.84 1021.88 1021.96 1022.00 1022.04 1022.08 1022.00 1021.92 1021.84 1021.72 1021.72 1021.64 1021.64 1021.60 1021.56 1021.60 1021.68 1021.72 1021.72 1021.68 1021.60 1021.56 1021.48 1021.44 1021.36
1017.20 1017.32 1017.48 1017.60 1017.76 1017.84 1018.00 1018.12 1018.20 1018.36 1018.52 1018.64 1018.80 1018.92 1019.00 1019.16 1019.28 1019.40 1019.52 1019.60 1019.72 1019.80 1019.88 1020.00 1020.08 1020.16 1020.20 1020.28 1020.28 1020.32 1020.40 1020.44 1020.56 1020.64 1020.68 1020.76 1020.84 1020.96 1021.04 1021.16 1021.36 1021.56 1021.72 1021.88 1022.00 1022.08 1022.12 1022.12 1022.20 1022.16 1022.12 1022.04 1021.88 1021.84 1021.80 1021.76 1021.76 1021.72 1021.72 1021.72 1021.72 1021.76 1021.72 1021.72 1021.64 1021.56 1021.56 1021.52 1021.40
1017.40 1017.52 1017.64 1017.76 1017.88 1018.00 1018.12 1018.28 1018.40 1018.56 1018.68 1018.84 1019.00 1019.12 1019.24 1019.32 1019.48 1019.60 1019.72 1019.84 1019.96 1020.04 1020.12 1020.24 1020.36 1020.40 1020.44 1020.48 1020.52 1020.56 1020.56 1020.60 1020.68 1020.76 1020.80 1020.88 1020.96 1021.00 1021.08 1021.20 1021.40 1021.60 1021.84 1022.00 1022.12 1022.16 1022.16 1022.16 1022.20 1022.24 1022.16 1022.04 1021.92 1021.84 1021.84 1021.84 1021.88 1021.84 1021.84 1021.84 1021.84 1021.80 1021.72 1021.64 1021.64 1021.56 1021.56 1021.56 1021.52
1017.56 1017.68 1017.80 1017.96 1018.04 1018.16 1018.32 1018.44 1018.60 1018.76 1018.92 1019.08 1019.16 1019.28 1019.40 1019.56 1019.68 1019.80 1019.88 1020.04 1020.16 1020.28 1020.40 1020.48 1020.56 1020.64 1020.68 1020.68 1020.72 1020.76 1020.84 1020.84 1020.92 1020.96 1021.00 1021.04 1021.12 1021.12 1021.20 1021.32 1021.56 1021.84 1022.08 1022.16 1022.24 1022.28 1022.32 1022.32 1022.32 1022.28 1022.24 1022.12 1022.00 1021.92 1021.92 1021.96 1022.00 1022.00 1022.00 1022.00 1021.92 1021.88 1021.84 1021.72 1021.64 1021.56 1021.56 1021.56 1021.56
1017.72 1017.84 1018.00 1018.12 1018.24 1018.40 1018.56 1018.68 1018.84 1019.00 1019.12 1019.28 1019.40 1019.52 1019.60 1019.76 1019.88 1020.00 1020.12 1020.28 1020.40 1020.52 1020.64 1020.72 1020.80 1020.84 1020.88 1020.96 1021.00 1021.00 1021.04 1021.12 1021.16 1021.20 1021.20 1021.28 1021.28 1021.36 1021.44 1021.60 1021.84 1022.08 1022.28 1022.28 1022.32 1022.36 1022.40 1022.40 1022.40 1022.40 1022.32 1022.24 1022.16 1022.12 1022.04 1022.04 1022.08 1022.08 1022.08 1022.04 1022.04 1022.00 1021.96 1021.84 1021.72 1021.64 1021.56 1021.56 1021.56
1017.84 1018.00 1018.12 1018.28 1018.40 1018.60 1018.76 1018.88 1019.04 1019.16 1019.32 1019.44 1019.60 1019.72 1019.84 1019.96 1020.08 1020.16 1020.32 1020.48 1020.64 1020.76 1020.84 1020.96 1021.04 1021.12 1021.12 1021.20 1021.24 1021.28 1021.28 1021.36 1021.40 1021.44 1021.48 1021.48 1021.52 1021.56 1021.64 1021.80 1022.00 1022.24 1022.36 1022.40 1022.40 1022.44 1022.52 1022.52 1022.52 1022.52 1022.44 1022.36 1022.28 1022.24 1022.24 1022.16 1022.12 1022.12 1022.12 1022.12 1022.12 1022.08 1022.04 1021.96 1021.84 1021.76 1021.68 1021.60 1021.56
1018.00 1018.12 1018.28 1018.40 1018.60 1018.80 1018.96 1019.04 1019.20 1019.40 1019.56 1019.64 1019.80 1019.92 1020.04 1020.12 1020.28 1020.40 1020.56 1020.68 1020.80 1020.88 1021.00 1021.12 1021.24 1021.28 1021.36 1021.40 1021.48 1021.52 1021.56 1021.56 1021.64 1021.68 1021.72 1021.72 1021.72 1021.76 1021.84 1022.00 1022.12 1022.32 1022.44 1022.52 1022.56 1022.60 1022.64 1022.64 1022.64 1022.64 1022.60 1022.52 1022.40 1022.32 1022.28 1022.28 1022.28 1022.28 1022.24 1022.20 1022.24 1022.24 1022.12 1022.04 1022.04 1021.96 1021.84 1021.76 1021.68
1018.12 1018.28 1018.40 1018.60 1018.80 1018.96 1019.12 1019.28 1019.40 1019.56 1019.72 1019.84 1020.00 1020.12 1020.20 1020.36 1020.44 1020.60 1020.72 1020.88 1021.00 1021.12 1021.24 1021.36 1021.40 1021.48 1021.56 1021.64 1021.72 1021.72 1021.76 1021.84 1021.88 1021.92 1021.96 1021.96 1021.96 1022.00 1022.08 1022.20 1022.32 1022.48 1022.56 1022.60 1022.68 1022.72 1022.76 1022.72 1022.76 1022.76 1022.72 1022.68 1022.56 1022.48 1022.40 1022.40 1022.40 1022.40 1022.40 1022.40 1022.40 1022.40 1022.36 1022.28 1022.20 1022.12 1022.04 1022.00 1021.84
1018.28 1018.40 1018.56 1018.72 1018.92 1019.12 1019.32 1019.48 1019.60 1019.72 1019.84 1020.00 1020.12 1020.28 1020.36 1020.56 1020.68 1020.84 1021.00 1021.12 1021.28 1021.40 1021.56 1021.60 1021.64 1021.72 1021.80 1021.84 1021.88 1021.96 1022.00 1022.08 1022.12 1022.16 1022.16 1022.16 1022.20 1022.24 1022.28 1022.36 1022.48 1022.60 1022.68 1022.72 1022.76 1022.84 1022.84 1022.84 1022.84 1022.84 1022.84 1022.80 1022.68 1022.60 1022.56 1022.56 1022.52 1022.52 1022.56 1022.56 1022.56 1022.56 1022.48 1022.40 1022.36 1022.32 1022.24 1022.12 1021.96
1018.40 1018.56 1018.72 1018.88 1019.12 1019.32 1019.52 1019.64 1019.80 1019.92 1020.00 1020.16 1020.28 1020.44 1020.60 1020.76 1020.96 1021.12 1021.28 1021.40 1021.56 1021.64 1021.72 1021.76 1021.84 1021.88 1022.00 1022.04 1022.12 1022.20 1022.28 1022.28 1022.36 1022.40 1022.40 1022.40 1022.40 1022.40 1022.40 1022.48 1022.56 1022.68 1022.80 1022.84 1022.88 1022.92 1022.96 1023.00 1023.00 1022.96 1022.96 1022.92 1022.84 1022.72 1022.68 1022.64 1022.60 1022.60 1022.64 1022.68 1022.68 1022.68 1022.64 1022.56 1022.56 1022.48 1022.40 1022.28 1022.12
1018.56 1018.72 1018.88 1019.08 1019.28 1019.48 1019.68 1019.80 1019.96 1020.08 1020.24 1020.36 1020.52 1020.68 1020.84 1021.04 1021.20 1021.40 1021.52 1021.60 1021.72 1021.80 1021.84 1021.92 1022.00 1022.08 1022.12 1022.24 1022.32 1022.40 1022.48 1022.56 1022.64 1022.68 1022.68 1022.68 1022.68 1022.64 1022.60 1022.60 1022.68 1022.84 1022.88 1022.92 1022.96 1023.00 1023.04 1023.12 1023.12 1023.12 1023.08 1023.00 1022.88 1022.84 1022.76 1022.72 1022.72 1022.72 1022.72 1022.76 1022.76 1022.76 1022.76 1022.80 1022.76 1022.72 1022.64 1022.48 1022.28
1018.68 1018.88 1019.04 1019.24 1019.44 1019.64 1019.80 1019.96 1020.12 1020.28 1020.40 1020.56 1020.76 1020.96 1021.12 1021.28 1021.40 1021.56 1021.72 1021.84 1021.92 1022.00 1022.12 1022.12 1022.24 1022.32 1022.40 1022.44 1022.56 1022.60 1022.68 1022.80 1022.84 1022.88 1022.88 1022.88 1022.88 1022.84 1022.84 1022.84 1022.88 1023.00 1023.04 1023.00 1023.00 1023.08 1023.12 1023.20 1023.20 1023.20 1023.16 1023.12 1023.00 1022.88 1022.84 1022.84 1022.84 1022.84 1022.84 1022.84 1022.84 1022.84 1022.84 1022.84 1022.84 1022.88 1022.84 1022.72 1022.52
1018.80 1019.00 1019.16 1019.40 1019.56 1019.76 1019.92 1020.12 1020.28 1020.40 1020.56 1020.76 1021.00 1021.16 1021.36 1021.48 1021.60 1021.80 1021.96 1022.08 1022.16 1022.28 1022.36 1022.44 1022.56 1022.60 1022.68 1022.76 1022.84 1022.84 1022.88 1023.00 1023.00 1023.04 1023.04 1023.04 1023.04 1023.04 1023.04 1023.04 1023.12 1023.16 1023.16 1023.08 1023.12 1023.16 1023.24 1023.28 1023.28 1023.28 1023.24 1023.12 1023.04 1023.00 1023.00 1022.92 1022.88 1022.92 1022.92 1022.88 1022.88 1022.92 1022.92 1022.88 1022.88 1022.96 1023.00 1022.92 1022.68
1018.84 1019.04 1019.28 1019.48 1019.72 1019.88 1020.08 1020.28 1020.40 1020.56 1020.76 1020.96 1021.16 1021.36 1021.52 1021.68 1021.84 1022.00 1022.16 1022.28 1022.32 1022.40 1022.56 1022.68 1022.72 1022.80 1022.88 1023.00 1023.04 1023.08 1023.12 1023.12 1023.16 1023.16 1023.20 1023.20 1023.20 1023.20 1023.20 1023.24 1023.28 1023.28 1023.28 1023.20 1023.24 1023.28 1023.36 1023.40 1023.40 1023.40 1023.28 1023.20 1023.12 1023.04 1023.04 1023.04 1023.00 1023.00 1023.00 1023.00 1023.00 1023.00 1023.00 1022.92 1022.92 1023.00 1023.04 1023.00 1022.84
1019.00 1019.12 1019.32 1019.56 1019.80 1020.00 1020.16 1020.36 1020.56 1020.72 1020.92 1021.12 1021.32 1021.48 1021.68 1021.84 1022.04 1022.20 1022.32 1022.40 1022.44 1022.56 1022.68 1022.80 1022.88 1023.00 1023.12 1023.20 1023.24 1023.28 1023.36 1023.32 1023.32 1023.32 1023.32 1023.32 1023.32 1023.32 1023.36 1023.36 1023.36 1023.40 1023.40 1023.36 1023.40 1023.44 1023.52 1023.56 1023.52 1023.44 1023.36 1023.24 1023.16 1023.12 1023.12 1023.12 1023.12 1023.12 1023.12 1023.12 1023.04 1023.04 1023.04 1023.00 1023.00 1023.00 1023.00 1023.04 1022.96
1019.08 1019.28 1019.44 1019.64 1019.88 1020.12 1020.28 1020.48 1020.68 1020.84 1021.04 1021.28 1021.44 1021.64 1021.84 1022.00 1022.16 1022.36 1022.48 1022.56 1022.56 1022.68 1022.84 1023.00 1023.12 1023.20 1023.32 1023.40 1023.40 1023.48 1023.56 1023.56 1023.52 1023.44 1023.44 1023.44 1023.48 1023.48 1023.48 1023.48 1023.52 1023.56 1023.56 1023.56 1023.56 1023.56 1023.56 1023.60 1023.56 1023.56 1023.44 1023.32 1023.28 1023.20 1023.16 1023.24 1023.28 1023.32 1023.28 1023.24 1023.16 1023.12 1023.12 1023.08 1023.04 1023.00 1023.00 1023.00 1022.96
1019.24 1019.40 1019.60 1019.76 1020.00 1020.20 1020.40 1020.60 1020.80 1021.00 1021.24 1021.40 1021.60 1021.80 1022.00 1022.12 1022.28 1022.48 1022.64 1022.68 1022.76 1022.84 1023.00 1023.12 1023.28 1023.40 1023.48 1023.56 1023.56 1023.64 1023.72 1023.72 1023.72 1023.68 1023.64 1023.64 1023.72 1023.68 1023.64 1023.60 1023.64 1023.72 1023.76 1023.76 1023.72 1023.68 1023.64 1023.64 1023.64 1023.64 1023.56 1023.44 1023.40 1023.32 1023.28 1023.36 1023.40 1023.44 1023.40 1023.36 1023.28 1023.20 1023.16 1023.16 1023.12 1023.12 1023.08 1023.04 1022.96
1019.40 1019.56 1019.76 1019.96 1020.12 1020.32 1020.52 1020.72 1021.00 1021.20 1021.40 1021.56 1021.76 1021.92 1022.12 1022.28 1022.44 1022.64 1022.80 1022.84 1022.96 1023.00 1023.12 1023.28 1023.40 1023.52 1023.60 1023.64 1023.68 1023.72 1023.84 1023.84 1023.88 1023.88 1023.88 1023.88 1023.92 1023.88 1023.84 1023.76 1023.80 1023.84 1023.92 1023.92 1023.88 1023.84 1023.72 1023.72 1023.72 1023.72 1023.68 1023.56 1023.52 1023.48 1023.48 1023.52 1023.56 1023.56 1023.48 1023.40 1023.36 1023.28 1023.28 1023.28 1023.28 1023.24 1023.20 1023.12 1023.00
1019.56 1019.72 1019.92 1020.12 1020.28 1020.48 1020.64 1020.88 1021.12 1021.36 1021.56 1021.72 1021.88 1022.08 1022.28 1022.48 1022.60 1022.72 1022.84 1023.00 1023.04 1023.12 1023.28 1023.40 1023.52 1023.60 1023.68 1023.72 1023.76 1023.84 1023.96 1024.00 1024.04 1024.08 1024.12 1024.12 1024.12 1024.04 1024.00 1023.92 1023.96 1024.00 1024.04 1024.04 1024.04 1024.00 1023.88 1023.84 1023.84 1023.84 1023.80 1023.72 1023.72 1023.68 1023.72 1023.72 1023.72 1023.68 1023.56 1023.56 1023.48 1023.44 1023.40 1023.36 1023.36 1023.36 1023.28 1023.20 1023.08
Wind_Speed
9 8 7 6 6 5 5 5 5 5 4 4 5 4 4 4 4 3 3 3 3 3 3 3 4 4 4 4 5 5 6 6 7 7 7 7 6 6 6 6 6 5 4 4 3 3 3 3 2 1 1 1 2 2 3 3 3 4 4 4 4 4 5 6 7 7 8 8 6
10 9 8 7 6 5 5 5 5 4 4 4 4 4 4 4 4 3 3 4 3 3 3 3 3 3 3 3 4 5 5 5 6 5 5 6 6 6 6 6 5 4 3 3 3 3 2 2 2 2 2 2 3 3 3 3 4 4 4 5 4 4 4 5 7 7 8 7 6
9 9 8 7 7 6 5 5 5 6 6 5 4 4 4 4 3 3 3 4 4 4 3 3 3 2 2 3 4 5 5 5 4 4 4 4 4 4 4 3 2 1 2 3 3 2 2 2 2 2 2 2 3 3 3 3 3 4 4 5 4 3 3 4 5 6 5 5 6
9 9 8 8 9 8 7 6 6 7 6 5 5 5 4 4 3 3 3 4 4 4 4 3 2 2 3 4 4 5 4 4 3 3 2 2 1 1 2 3 3 3 3 3 3 3 3 3 2 2 3 3 4 4 4 3 3 4 3 3 3 3 3 4 4 4 4 4 5
9 8 8 8 9 9 8 7 7 7 6 5 5 4 4 3 3 3 3 3 4 4 3 3 2 3 3 3 4 3 2 0 1 2 3 4 4 4 4 3 3 2 2 3 3 4 4 4 3 3 3 4 4 4 4 4 4 4 3 2 3 3 3 4 4 3 3 3 3
8 8 8 8 9 8 7 7 7 7 6 5 5 5 4 3 3 3 3 4 4 3 3 3 3 3 3 2 1 0 2 3 3 4 4 3 3 3 3 3 3 3 3 4 4 5 5 5 3 3 3 3 3 4 4 4 4 3 3 3 3 3 3 3 3 3 3 4 3
8 8 8 8 8 8 7 6 6 6 5 5 6 6 6 5 5 5 5 4 3 3 3 3 3 3 2 2 1 2 3 4 4 4 4 3 3 3 3 3 3 3 3 4 4 4 4 4 3 2 2 2 2 3 3 3 3 3 3 3 2 2 3 3 3 2 3 4 5
8 8 8 8 8 8 7 7 6 5 5 4 5 6 7 6 6 5 5 4 3 3 3 2 2 2 2 1 1 2 3 3 3 3 3 3 3 3 3 3 3 4 4 4 4 4 3 3 2 2 2 2 2 2 3 3 3 3 3 3 3 2 2 2 2 2 3 4 5
6 7 7 7 7 7 7 7 6 6 5 5 6 6 6 5 5 4 4 3 2 2 1 1 1 1 1 2 2 3 2 2 2 3 3 3 3 3 3 4 4 4 3 3 3 3 3 2 2 2 2 2 2 2 1 1 2 3 3 3 3 3 3 3 3 3 3 4 5
6 6 6 6 6 6 6 6 6 6 6 6 6 5 4 3 3 3 3 2 2 1 1 1 2 3 3 4 3 3 3 2 3 3 3 3 3 4 4 4 3 3 3 3 3 3 3 2 2 2 2 1 2 2 1 1 2 3 3 2 3 3 3 3 3 3 3 3 4
6 6 6 5 6 6 5 5 5 5 5 5 4 3 3 3 3 3 2 2 1 2 3 4 4 4 4 3 3 3 3 2 2 3 3 4 3 3 3 3 3 3 3 3 3 2 2 1 1 1 1 1 2 2 1 1 2 3 3 3 3 3 4 4 4 3 3 3 4
6 5 5 5 5 5 5 5 4 4 4 3 3 3 4 3 3 3 3 3 4 4 4 4 4 4 4 3 3 3 3 3 3 3 3 3 3 3 3 3 3 3 3 3 2 1 1 1 1 1 1 1 1 1 1 2 2 3 3 4 4 4 4 4 4 4 4 4 4
5 5 5 5 5 5 5 5 4 3 3 3 3 4 4 4 4 4 4 5 5 5 4 3 3 3 4 3 3 3 4 4 4 4 4 4 4 3 3 3 3 2 2 2 2 1 0 0 1 2 2 2 2 2 3 3 3 3 4 4 4 4 4 5 5 5 5 5 5
5 5 5 5 5 5 5 4 4 3 3 4 4 4 4 4 4 4 4 5 5 5 4 3 3 3 3 3 3 3 3 4 4 4 5 4 4 4 4 3 3 3 3 3 2 2 2 2 3 3 3 4 3 4 4 4 4 4 4 4 5 5 5 5 5 5 5 5 5
6 5 5 5 5 5 4 4 4 4 4 5 4 5 5 4 4 4 4 5 5 5 4 4 4 4 4 4 4 4 4 4 5 5 5 5 5 5 5 5 5 4 4 4 4 4 4 5 5 5 4 4 4 4 4 4 5 5 5 5 5 6 6 6 6 5 5 5 5
6 6 5 5 5 5 5 5 4 4 5 5 5 5 5 4 4 4 4 5 5 5 5 5 5 5 5 5 5 5 5 5 6 6 6 7 7 7 6 6 6 6 6 5 6 6 6 6 6 5 5 5 5 6 6 6 6 6 6 6 6 6 6 5 5 5 5 4 5
7 6 6 6 6 6 6 5 5 5 5 6 6 5 5 4 4 4 5 5 5 6 6 6 6 6 6 6 6 6 6 6 7 7 7 7 8 8 8 8 8 7 7 7 7 7 7 7 6 6 6 7 6 7 7 7 6 6 6 6 6 5 5 5 5 5 5 5 5
7 7 7 7 7 7 7 7 7 6 7 6 6 6 5 5 5 5 6 6 7 7 8 8 7 7 8 8 7 7 7 7 8 8 8 8 8 8 8 8 9 8 8 8 8 8 8 7 7 7 7 7 7 7 7 6 6 6 6 6 5 5 5 5 5 5 5 5 5
8 8 8 8 8 8 8 8 8 8 7 7 7 7 7 7 7 7 7 7 8 9 9 9 9 9 9 9 8 8 7 8 9 9 9 9 9 9 9 9 9 9 9 8 8 8 8 8 8 8 7 7 7 6 6 6 6 6 6 6 5 5 5 5 5 5 5 6 6
9 9 8 9 9 9 9 9 9 8 8 8 8 8 8 8 8 9 9 9 9 9 10 10 10 10 10 10 10 9 8 8 9 9 9 9 9 9 10 10 10 10 9 9 8 9 9 8 8 8 8 7 7 6 6 6 6 6 6 5 5 6 6 5 5 5 5 5 6
9 9 9 9 9 9 9 9 9 9 9 9 9 9 9 9 10 10 10 10 10 10 10 11 11 10 10 10 10 10 9 8 9 9 9 9 10 10 10 10 10 10 9 9 9 9 9 9 9 8 7 7 7 6 6 6 6 6 6 5 5 6 6 5 5 5 5 5 6
9 9 9 9 10 10 10 10 10 10 10 10 10 10 10 10 10 10 10 10 10 11 11 11 11 11 10 10 10 10 9 8 9 9 9 9 9 9 10 10 10 10 10 9 9 9 9 9 8 7 6 5 6 6 6 6 5 5 6 6 6 6 5 5 5 5 5 5 5
9 9 9 10 10 10 10 10 10 10 11 10 10 11 11 11 11 11 10 10 10 11 11 11 10 10 10 10 10 10 10 9 9 9 9 9 9 9 10 10 10 10 9 8 8 8 8 7 6 5 4 3 5 5 6 6 5 5 5 5 6 5 5 4 5 5 5 5 5
10 9 9 9 10 10 10 10 11 11 11 11 11 11 11 11 11 11 11 11 11 11 10 9 9 9 10 10 10 10 10 10 10 10 10 9 9 9 9 9 9 9 8 7 7 7 6 5 4 3 2 2 3 5 5 5 5 5 5 5 5 5 4 4 5 5 5 6 5
10 10 10 9 10 10 10 11 11 11 11 11 11 11 11 11 11 11 11 12 11 11 11 10 9 9 9 9 9 10 10 10 10 10 10 9 9 9 8 8 8 8 8 8 9 10 8 7 5 3 2 2 4 4 5 6 6 6 6 6 6 5 5 5 5 5 5 6 6
10 10 10 10 11 11 11 11 11 11 11 11 11 11 11 11 11 11 12 12 11 11 10 10 9 9 8 8 9 9 9 9 9 9 9 9 9 9 9 8 8 7 7 9 11 11 11 10 8 6 4 3 4 4 5 5 6 6 6 6 6 6 6 6 6 6 6 6 6
10 10 11 11 11 11 11 11 11 11 11 11 11 11 11 10 10 11 12 12 11 10 10 9 9 8 8 8 9 9 9 8 9 9 9 9 9 9 9 9 8 7 7 9 11 12 11 11 10 8 6 4 4 4 5 5 5 5 5 6 6 6 6 6 7 7 7 7 7
11 11 11 11 11 11 11 11 11 11 11 11 11 11 11 11 11 11 11 11 10 9 8 8 7 7 6 7 8 9 9 9 8 8 9 9 9 9 9 8 8 8 8 11 11 12 12 11 11 9 8 6 5 4 5 5 5 5 5 5 6 6 6 6 7 7 7 8 8
11 11 12 12 12 11 11 11 11 11 11 11 11 11 11 11 11 11 11 10 9 9 7 6 6 6 6 7 8 8 9 9 8 8 8 9 9 9 9 9 9 9 10 11 11 12 12 12 11 10 9 7 5 4 4 4 4 5 5 5 6 6 6 7 7 7 7 8 8
11 11 12 12 12 11 11 11 11 11 11 11 11 11 11 11 11 11 10 10 9 8 7 6 6 7 7 8 8 8 8 8 7 8 8 9 9 9 9 9 8 8 9 10 11 11 11 11 11 11 10 9 6 5 4 4 5 5 5 5 6 7 7 7 7 8 8 8 8
11 11 12 12 12 12 11 11 11 11 11 10 11 11 11 11 11 10 10 10 9 8 8 8 9 9 9 8 8 8 8 8 7 8 8 8 9 9 9 9 9 8 8 10 10 11 11 11 11 11 10 9 7 5 5 5 5 5 5 5 6 7 7 7 8 8 9 9 8
11 12 12 12 12 12 11 11 11 11 11 11 11 11 11 11 11 10 10 9 9 9 9 9 10 10 9 9 8 8 8 8 8 7 7 7 8 8 8 8 8 8 8 9 10 10 11 11 11 11 10 9 7 6 6 5 5 5 5 6 7 7 7 7 7 9 10 10 9
12 12 12 12 12 12 11 11 11 11 11 11 11 11 11 11 11 10 9 9 9 9 9 9 9 9 9 9 9 9 8 8 8 8 7 7 7 7 7 7 8 8 8 9 10 10 10 11 11 11 10 9 7 6 6 6 5 5 5 6 6 7 7 8 8 9 10 10 10
12 12 12 12 12 12 11 11 11 11 11 12 11 11 11 11 10 10 9 8 8 8 8 9 9 9 9 8 8 8 8 7 7 7 7 7 8 8 7 7 6 7 8 9 9 10 10 10 10 10 9 8 6 6 6 6 5 5 6 6 7 7 7 7 8 8 9 10 10
13 13 13 12 12 12 11 11 11 11 12 12 11 11 11 10 10 10 9 9 8 8 8 8 8 8 8 8 8 8 8 8 7 7 7 7 8 8 8 8 7 8 9 9 9 9 10 10 10 10 8 7 5 5 5 6 5 6 6 7 7 7 8 8 7 7 8 9 10
13 13 13 13 12 12 12 12 11 12 12 12 11 11 11 10 10 9 9 9 9 9 9 9 8 8 8 8 8 8 8 8 7 7 7 7 8 8 8 8 8 9 10 10 10 10 10 10 10 9 8 6 5 4 5 5 5 6 7 7 7 8 8 8 7 7 7 7 9
13 13 13 13 12 12 12 12 12 12 12 11 11 11 11 10 10 9 8 8 9 9 9 9 9 9 8 8 8 7 7 7 7 7 8 8 8 8 8 8 8 9 10 11 11 11 10 9 9 9 8 6 5 5 5 5 5 6 7 7 7 8 8 7 7 7 7 7 9
12 13 13 13 12 12 12 11 12 12 12 11 11 10 10 10 9 8 8 8 8 9 9 9 9 8 8 8 8 8 8 7 8 8 8 8 8 8 8 9 9 9 10 12 12 11 10 9 9 9 8 6 6 5 5 4 5 6 6 7 7 7 8 7 6 7 8 9 11
12 12 13 13 12 12 12 12 12 12 12 11 11 10 10 9 8 8 7 7 8 8 9 9 9 9 8 8 8 8 8 8 8 8 8 8 8 8 8 9 9 9 10 12 12 11 10 10 10 9 9 7 6 5 5 5 5 6 6 6 6 7 7 7 6 7 8 10 12
12 12 12 12 12 12 12 12 12 11 11 11 11 10 10 9 8 8 7 7 8 8 9 9 9 9 8 8 8 9 9 9 8 8 9 9 8 8 8 9 9 9 10 11 12 12 12 12 12 11 9 7 6 6 5 5 5 6 6 6 6 6 7 7 6 6 7 9 10
11 11 12 12 11 12 12 12 12 11 10 10 10 10 9 9 8 8 8 7 8 8 8 8 9 9 8 8 8 8 9 9 9 9 8 8 8 8 8 8 9 9 10 11 12 13 13 13 13 13 11 8 7 6 5 5 5 6 7 7 7 6 6 7 6 6 7 8 8
Wind_Direction
203 201 199 196 195 198 201 204 207 209 211 210 209 207 207 212 210 201 191 193 205 214 220 222 224 223 220 216 216 219 220 217 214 214 216 220 223 226 229 234 230 220 205 193 182 178 181 187 196 209 225 232 244 248 247 240 235 234 234 233 237 245 251 256 258 255 251 245 241
203 202 198 193 192 195 198 200 201 203 206 209 211 210 209 211 207 200 195 200 208 216 222 229 230 228 224 225 237 242 243 237 227 221 218 222 227 231 233 237 231 212 187 169 165 162 162 170 180 196 217 224 232 239 240 234 229 231 236 237 233 234 241 250 255 256 255 252 247
203 201 198 194 193 194 195 198 199 201 203 206 209 210 210 211 206 199 197 203 209 214 219 227 228 223 222 233 248 254 257 257 250 240 230 227 232 238 246 260 254 170 133 130 140 148 158 170 187 206 223 234 237 242 241 232 222 226 237 243 240 238 242 250 254 255 253 251 246
202 200 199 197 197 197 198 200 201 202 202 202 206 209 211 209 200 195 198 209 213 216 218 218 223 221 224 232 242 248 253 260 270 277 285 299 325 356 29 50 66 81 99 121 146 166 180 187 199 216 232 241 246 246 242 231 220 225 234 242 244 244 245 250 254 254 253 252 250
201 200 200 200 201 201 202 204 203 202 200 198 199 202 205 201 192 192 199 212 218 220 220 216 225 234 239 241 242 241 239 272 24 34 38 40 45 53 63 78 99 120 143 164 182 193 199 200 204 216 227 233 236 240 239 233 229 231 235 237 237 241 245 252 255 257 260 262 261
198 199 201 202 203 204 205 207 205 203 199 195 195 196 196 196 192 194 201 213 222 225 225 222 228 236 243 246 252 101 89 86 82 84 88 93 101 113 128 143 161 174 184 194 202 207 208 207 209 214 222 230 238 242 241 237 239 243 244 240 237 240 250 259 265 271 275 277 277
195 198 200 203 203 203 204 205 203 201 197 196 199 200 199 197 195 199 205 214 216 218 220 224 225 227 228 219 149 118 113 112 114 120 128 137 142 148 154 161 177 189 198 204 211 213 213 210 215 221 225 226 238 241 239 233 239 250 259 263 260 260 265 273 276 276 276 276 278
193 196 199 201 201 202 202 201 199 196 195 198 204 206 205 200 196 200 206 214 218 219 218 217 218 226 228 216 140 119 119 126 133 135 136 140 141 142 147 156 178 191 197 199 203 206 208 209 219 232 239 235 237 239 237 232 244 258 272 286 291 290 280 266 255 255 264 277 287
188 191 194 195 197 198 198 196 196 195 197 202 208 210 207 195 190 194 203 215 224 226 215 179 159 134 82 67 69 72 78 96 103 105 108 120 134 146 160 172 183 187 184 180 188 193 197 200 218 231 239 244 249 254 257 252 266 275 283 291 286 274 258 242 249 263 280 293 301
179 181 184 186 189 191 192 191 193 197 202 206 210 206 192 165 171 180 188 196 205 204 151 91 84 83 83 85 91 94 95 92 93 105 122 149 166 173 175 174 169 165 161 162 173 182 190 201 228 242 254 265 284 302 314 311 282 279 278 265 267 274 282 291 298 301 302 303 303
169 171 173 175 177 180 182 184 189 195 201 206 198 173 135 130 149 155 156 159 145 104 83 77 84 92 99 105 112 116 117 121 131 147 161 173 176 170 158 143 145 149 152 153 158 165 176 199 241 267 283 300 306 311 311 291 275 278 284 289 302 314 323 330 328 322 314 310 306
154 157 160 160 163 168 173 176 181 185 188 189 161 128 109 104 108 111 111 108 92 84 83 87 101 110 115 118 122 130 141 157 163 163 159 154 146 135 128 126 134 137 135 131 128 131 148 199 261 282 293 298 298 315 326 316 302 304 313 323 328 330 332 337 338 336 331 327 321
132 137 141 143 149 157 164 166 164 162 159 147 126 114 107 103 104 107 108 104 96 91 90 95 105 112 116 123 135 150 161 165 155 144 133 126 121 119 117 117 114 110 105 102 97 92 86 45 351 345 346 348 350 356 357 346 336 333 333 336 337 340 344 348 349 346 341 335 330
114 119 125 133 142 148 151 148 139 133 126 117 109 105 102 99 98 101 106 107 107 107 108 108 101 98 104 119 133 142 146 140 128 120 112 106 102 99 95 89 82 77 75 75 73 59 38 30 24 16 11 9 11 12 10 2 358 354 352 352 352 354 356 357 355 351 345 340 334
106 110 117 127 132 132 129 123 115 110 108 104 98 93 89 86 85 90 100 108 113 117 118 111 101 94 92 93 99 102 104 101 100 97 94 90 85 80 77 74 71 68 65 64 63 55 47 40 35 31 28 28 29 29 27 22 21 18 14 10 8 6 4 1 357 352 348 344 337
105 108 113 118 117 113 109 105 100 98 95 92 89 86 85 86 87 91 97 106 110 110 108 105 102 96 89 80 78 78 80 81 82 84 84 82 80 77 75 73 71 68 66 63 63 60 56 51 48 46 44 44 44 42 40 37 35 32 29 26 22 17 10 1 357 354 351 349 341
102 103 104 106 104 103 101 99 96 94 92 90 89 89 90 95 96 98 100 106 107 104 101 98 97 93 88 81 75 73 73 75 75 76 77 78 79 77 75 73 71 69 66 64 65 65 63 60 58 57 55 54 52 49 47 45 43 41 39 37 34 26 16 6 1 358 356 356 348
100 99 98 98 97 97 97 97 96 94 93 92 90 90 90 93 94 94 95 97 99 100 97 93 89 86 85 83 79 75 74 76 76 76 76 76 77 77 76 74 72 70 67 64 66 67 66 64 63 63 62 59 57 55 53 51 50 48 47 46 41 34 24 17 11 6 3 1 354
102 100 99 98 98 98 97 96 95 94 93 91 90 88 88 88 90 90 89 88 91 93 95 92 88 86 85 85 84 81 80 80 81 81 81 79 79 78 78 77 74 71 67 63 64 65 65 63 63 63 63 62 61 60 59 57 56 54 52 51 45 38 31 25 19 14 10 4 356
100 99 98 98 98 97 96 95 95 94 93 91 90 88 87 87 88 88 88 88 89 91 92 93 91 90 89 89 89 87 86 85 86 86 85 84 82 81 80 79 76 72 67 62 62 63 62 61 60 60 61 61 62 61 60 58 56 55 52 51 45 39 33 28 24 19 14 7 360
95 95 95 96 95 95 95 95 94 94 93 91 90 89 88 87 86 86 87 89 90 91 91 91 92 93 93 93 92 91 90 88 88 88 87 85 83 82 81 80 77 74 69 63 61 61 61 60 59 58 57 57 57 57 57 56 55 53 51 50 46 39 32 26 22 19 15 10 6
95 94 94 94 95 96 97 97 96 95 94 93 92 91 90 89 88 88 88 89 89 89 89 90 91 92 94 94 95 94 93 91 89 88 88 87 86 84 82 81 79 76 73 68 64 63 62 61 58 55 52 51 52 53 53 52 51 50 50 49 46 39 31 22 20 19 16 11 8
98 97 96 96 97 98 98 98 97 96 95 94 94 93 92 92 92 91 91 90 90 89 89 89 90 91 93 95 96 97 96 95 93 92 91 91 91 89 87 85 82 80 77 74 71 70 68 65 58 49 43 47 54 55 53 50 48 46 44 45 43 37 28 20 20 19 16 10 9
101 100 100 99 100 100 100 99 98 97 96 95 95 95 95 94 94 93 92 91 90 90 90 90 90 91 92 94 95 96 97 97 96 95 94 94 94 94 94 92 89 85 82 78 78 78 77 74 62 47 33 38 54 55 52 47 45 42 40 39 38 32 24 22 23 22 19 14 9
103 102 102 102 102 101 100 99 98 97 97 97 97 97 97 97 96 95 94 92 91 90 91 91 90 89 89 90 91 92 93 93 93 93 92 91 91 91 91 89 85 82 80 81 80 78 75 72 67 55 32 26 48 53 51 48 43 39 37 35 31 26 20 18 21 22 21 22 8
105 104 103 103 103 101 100 99 99 99 99 99 99 99 99 98 98 97 96 94 93 92 91 90 89 88 88 88 89 88 87 86 87 87 87 86 84 82 80 78 76 76 78 82 81 77 73 69 64 56 43 30 37 42 47 50 46 42 39 36 30 24 18 14 13 13 15 19 6
106 105 105 105 103 102 102 102 102 102 102 102 101 101 100 101 99 98 97 95 94 92 90 88 87 87 87 86 86 86 85 83 82 81 81 81 81 81 81 81 82 82 83 82 80 76 72 68 62 55 47 38 38 37 39 44 45 44 42 38 32 26 19 13 10 8 7 9 2
110 109 108 106 105 104 105 105 105 104 104 103 102 102 102 101 100 99 98 97 96 93 91 87 86 85 84 84 83 84 84 83 81 79 78 78 79 80 81 83 85 85 84 81 78 74 69 65 59 53 46 38 40 42 41 39 38 38 36 34 28 23 19 14 10 6 4 3 358
114 113 111 109 108 107 107 106 106 105 105 104 104 103 102 101 100 99 98 97 95 93 91 89 88 87 86 86 84 83 82 81 80 80 80 79 78 78 79 82 83 84 83 81 77 73 68 63 58 52 45 37 36 38 40 38 35 33 31 30 24 19 15 14 11 7 2 359 356
116 114 113 111 110 109 108 108 108 108 107 107 106 104 102 99 97 95 94 91 89 88 88 91 92 91 90 89 87 84 82 80 79 79 79 78 78 77 77 79 80 81 82 81 78 73 68 62 56 51 45 39 37 37 40 39 38 35 32 30 24 19 14 14 13 9 4 359 355
116 115 114 112 110 110 109 110 110 110 110 108 106 103 100 96 93 91 90 89 89 89 91 93 93 92 91 89 86 84 82 79 77 76 75 76 77 77 78 78 78 79 80 80 78 73 67 60 55 49 45 40 38 37 38 41 40 39 37 33 27 22 17 15 14 10 5 360 355
118 116 115 113 112 111 112 112 111 110 109 107 103 100 96 94 92 92 92 93 94 96 96 95 94 93 91 89 86 83 81 78 76 74 74 74 75 76 76 76 76 75 76 78 77 72 66 59 53 48 44 40 40 40 41 42 43 42 40 37 33 27 23 18 15 9 4 359 353
119 117 116 114 114 114 114 113 111 109 107 104 100 98 96 95 94 94 93 94 95 95 95 95 94 93 92 90 88 84 81 78 76 75 74 74 73 71 70 69 69 68 70 75 76 72 65 58 52 47 43 40 41 42 43 42 41 39 36 33 31 29 26 23 18 11 4 356 350
121 119 117 116 116 116 115 114 111 109 106 102 100 98 98 98 97 95 94 92 92 91 90 89 89 89 88 87 86 85 83 81 78 77 76 74 73 69 66 62 60 57 59 67 71 69 64 57 51 46 42 39 40 41 40 38 36 34 30 26 24 21 19 19 19 13 5 355 350
125 122 120 119 119 118 117 115 113 109 106 103 101 100 99 98 97 97 96 96 95 93 90 88 88 87 86 84 84 84 84 84 82 80 78 77 76 73 69 64 59 53 53 59 65 66 63 57 49 43 38 34 36 36 34 31 29 26 23 19 17 13 10 9 13 13 6 356 350
128 126 124 122 121 121 119 117 114 111 108 106 104 103 102 100 99 100 101 102 100 98 96 94 92 91 89 86 84 82 82 83 83 82 81 79 78 76 72 67 60 54 52 55 61 64 63 57 47 38 30 25 26 26 25 22 20 17 15 12 11 8 5 2 6 9 7 356 350
129 128 126 125 124 123 121 119 116 112 110 108 107 106 105 104 103 104 105 106 104 102 100 98 95 92 89 87 84 82 81 81 83 83 82 80 78 76 73 68 61 55 52 53 59 64 64 58 45 34 24 18 18 18 20 21 17 13 10 6 5 4 3 359 2 4 3 356 351
130 129 127 126 126 124 123 120 116 114 112 111 110 109 109 108 107 108 108 108 107 105 103 100 97 94 91 90 88 84 82 80 81 82 82 80 77 75 73 70 63 56 52 50 54 57 58 55 45 34 24 16 15 15 19 24 19 13 7 1 359 0 1 360 359 359 358 354 352
130 129 128 127 126 124 122 119 116 115 114 114 113 112 111 110 109 109 109 108 108 107 106 103 101 99 97 95 92 88 84 80 79 79 79 78 73 71 70 71 66 59 53 47 45 45 45 46 44 38 29 17 15 16 20 26 20 12 4 357 357 358 359 0 359 358 355 352 351
129 128 127 126 125 123 121 118 116 115 115 116 115 113 112 111 110 111 111 109 109 108 107 106 105 104 101 97 94 90 87 83 80 78 78 76 71 68 67 69 66 61 54 46 40 36 36 38 41 39 32 20 18 18 21 24 17 9 3 359 358 358 358 359 358 357 354 350 349
126 126 125 124 123 121 119 117 116 116 115 115 115 114 113 113 114 114 114 113 112 110 108 107 107 105 102 98 95 92 90 88 84 81 79 76 72 67 65 65 63 59 53 46 40 36 35 37 38 37 33 25 23 22 22 21 14 7 3 2 0 359 357 356 356 356 354 351 350